Date String (YYYY-MM-DD hh:mm:ss) UTC,Instrument flags,Ambient pressure (hPa),Sample flow (lpm),Bypass flow (lpm),Sample temperature (°C),Ambient temperature (°C),ASC tube jacket temperature (°C),LED temperature (°C),Box temperature (°C),Sample RH (%),Span deviation,Mass concentration (μg/m³),Mass concentration (μg/m³),Mass concentration (μg/m³)
DateTimeUTC,F1_M11,P_M11,Q1_M11,Q2_M11,T1_M11,T2_M11,T3_M11,T4_M11,T5_M11,U1_M11,ZSPAN_M11,X2_M11,X0_M11,X1_M11
2021-12-05 23:00:00,,0826.2,5.00,0.00,26.0,25.1,00.0,35.2,27.6,09.5,0000.0,0005.22,0030.71,0001.77
2021-12-05 23:01:00,,0826.4,5.00,0.00,25.9,25.1,00.0,35.2,27.6,09.6,0000.0,0005.16,0030.32,0001.80
2021-12-05 23:02:00,,0826.6,5.02,0.00,25.9,25.0,00.0,35.1,27.5,09.6,0000.0,0005.10,0030.43,0001.79
2021-12-05 23:03:00,,0826.6,5.00,0.00,25.9,25.0,00.0,35.1,27.5,09.6,0000.0,0005.09,0030.74,0001.79
2021-12-05 23:04:00,,0826.5,5.00,0.00,25.9,25.0,00.0,35.1,27.5,09.6,0000.0,0005.16,0030.05,0001.80
2021-12-05 23:05:00,,0826.4,5.00,0.00,25.9,25.0,00.0,35.1,27.5,09.6,0000.0,0005.20,0030.66,0001.82
2021-12-05 23:06:00,,0826.4,4.99,0.00,25.8,25.0,00.0,35.1,27.5,09.6,0000.0,0005.20,0032.73,0001.84
2021-12-05 23:07:00,,0826.6,5.01,0.00,25.8,25.0,00.0,35.0,27.5,09.5,0000.0,0005.26,0034.16,0001.87
2021-12-05 23:08:00,,0826.8,5.00,0.00,25.8,25.0,00.0,35.0,27.4,09.6,0000.0,0005.27,0033.32,0001.90
2021-12-05 23:09:00,,0827.0,5.00,0.00,25.8,25.0,00.0,35.0,27.4,09.5,0000.0,0005.31,0033.37,0001.94
2021-12-05 23:10:00,,0827.1,5.00,0.00,25.8,24.9,00.0,35.0,27.4,09.5,0000.0,0005.27,0032.52,0001.97
2021-12-05 23:11:00,,0827.0,5.00,0.00,25.8,24.9,00.0,35.0,27.4,09.5,0000.0,0005.24,0032.64,0002.00
2021-12-05 23:12:00,,0827.0,5.00,0.00,25.7,24.9,00.0,34.9,27.3,09.5,0000.0,0005.21,0032.96,0002.01
2021-12-05 23:13:00,,0826.9,5.01,0.00,25.7,24.8,00.0,34.9,27.3,09.5,0000.0,0005.16,0031.78,0002.04
2021-12-05 23:14:00,,0826.8,4.99,0.00,25.7,24.8,00.0,34.9,27.3,09.5,0000.0,0005.09,0030.96,0002.04
2021-12-05 23:15:00,,0827.0,5.01,0.00,25.7,24.8,00.0,34.9,27.3,09.5,0000.0,0005.07,0030.94,0002.06
2021-12-05 23:16:00,,0826.9,5.01,0.00,25.6,24.7,00.0,34.9,27.2,09.6,0000.0,0005.05,0028.96,0002.05
2021-12-05 23:17:00,,0827.0,5.00,0.00,25.6,24.6,00.0,34.8,27.2,09.6,0000.0,0005.07,0027.34,0002.06
2021-12-05 23:18:00,,0827.0,5.01,0.00,25.5,24.5,00.0,34.8,27.1,09.7,0000.0,0005.04,0027.57,0002.05
2021-12-05 23:19:00,,0826.9,5.00,0.00,25.5,24.5,00.0,34.8,27.0,09.7,0000.0,0005.04,0027.00,0002.04
2021-12-05 23:20:00,,0826.9,4.99,0.00,25.5,24.5,00.0,34.7,27.0,09.7,0000.0,0005.01,0026.70,0002.03
2021-12-05 23:21:00,,0827.0,5.00,0.00,25.4,24.4,00.0,34.7,27.0,09.7,0000.0,0005.00,0025.76,0002.00
2021-12-05 23:22:00,,0827.2,5.00,0.00,25.4,24.4,00.0,34.7,27.0,09.8,0000.0,0004.99,0026.10,0002.00
2021-12-05 23:23:00,,0827.2,5.00,0.00,25.4,24.4,00.0,34.7,26.9,09.8,0000.0,0005.07,0026.74,0002.00
2021-12-05 23:24:00,,0827.2,4.99,0.00,25.3,24.4,00.0,34.6,26.9,09.9,0000.0,0005.08,0026.68,0002.00
2021-12-05 23:25:00,,0827.2,4.99,0.00,25.3,24.3,00.0,34.6,26.9,09.9,0000.0,0005.10,0026.33,0002.01
2021-12-05 23:26:00,,0827.2,5.00,0.00,25.3,24.3,00.0,34.6,26.8,09.9,0000.0,0005.04,0025.71,0001.99
2021-12-05 23:27:00,,0827.3,5.00,0.00,25.3,24.3,00.0,34.6,26.8,09.9,0000.0,0005.04,0026.60,0001.99
2021-12-05 23:28:00,,0827.5,4.99,0.00,25.2,24.4,00.0,34.5,26.8,09.8,0000.0,0005.05,0027.50,0001.97
2021-12-05 23:29:00,,0827.5,5.01,0.00,25.2,24.4,00.0,34.5,26.9,09.8,0000.0,0005.12,0027.87,0001.96
2021-12-05 23:30:00,,0827.4,4.99,0.00,25.2,24.4,00.0,34.5,26.8,09.8,0000.0,0005.23,0028.79,0001.91
2021-12-05 23:31:00,,0827.4,5.00,0.00,25.2,24.4,00.0,34.5,26.8,09.8,0000.0,0005.32,0029.08,0001.87
2021-12-05 23:32:00,,0827.4,5.00,0.00,25.2,24.4,00.0,34.4,26.8,09.8,0000.0,0005.33,0030.70,0001.86
2021-12-05 23:33:00,,0827.5,5.01,0.00,25.2,24.4,00.0,34.4,26.8,09.8,0000.0,0005.52,0033.42,0001.82
2021-12-05 23:34:00,,0827.5,5.00,0.00,25.2,24.4,00.0,34.4,26.8,09.7,0000.0,0005.61,0032.42,0001.80
2021-12-05 23:35:00,,0827.5,4.99,0.00,25.2,24.4,00.0,34.4,26.8,09.7,0000.0,0005.63,0033.23,0001.78
2021-12-05 23:36:00,,0827.5,5.02,0.00,25.2,24.4,00.0,34.4,26.8,09.6,0000.0,0005.66,0033.60,0001.75
2021-12-05 23:37:00,,0827.6,5.00,0.00,25.1,24.4,00.0,34.4,26.8,09.5,0000.0,0005.72,0034.11,0001.73
2021-12-05 23:38:00,,0827.6,4.99,0.00,25.1,24.4,00.0,34.3,26.7,09.5,0000.0,0005.73,0035.72,0001.69
2021-12-05 23:39:00,,0827.7,5.02,0.00,25.1,24.3,00.0,34.3,26.7,09.5,0000.0,0005.73,0037.13,0001.67
2021-12-05 23:40:00,,0827.7,4.98,0.00,25.1,24.3,00.0,34.3,26.7,09.4,0000.0,0005.81,0035.73,0001.64
2021-12-05 23:41:00,,0827.9,5.01,0.00,25.1,24.3,00.0,34.3,26.7,09.4,0000.0,0005.72,0036.30,0001.64
2021-12-05 23:42:00,,0827.9,4.99,0.00,25.1,24.3,00.0,34.3,26.7,09.3,0000.0,0005.62,0036.66,0001.63
2021-12-05 23:43:00,,0827.8,4.99,0.00,25.1,24.3,00.0,34.3,26.7,09.3,0000.0,0005.64,0036.73,0001.63
2021-12-05 23:44:00,,0827.9,5.00,0.00,25.1,24.3,00.0,34.2,26.7,09.3,0000.0,0005.53,0035.51,0001.62
2021-12-05 23:45:00,,0827.9,4.99,0.00,25.1,24.3,00.0,34.2,26.7,09.3,0000.0,0005.48,0034.83,0001.60
2021-12-05 23:46:00,,0827.9,4.99,0.00,25.1,24.3,00.0,34.2,26.7,09.3,0000.0,0005.46,0034.61,0001.58
2021-12-05 23:47:00,,0828.0,5.00,0.00,25.0,24.3,00.0,34.2,26.7,09.3,0000.0,0005.52,0035.64,0001.58
2021-12-05 23:48:00,,0828.1,5.00,0.00,25.0,24.3,00.0,34.2,26.6,09.3,0000.0,0005.56,0037.19,0001.58
2021-12-05 23:49:00,,0828.1,4.99,0.00,25.0,24.2,00.0,34.2,26.6,09.3,0000.0,0005.65,0036.70,0001.60
2021-12-05 23:50:00,,0828.3,5.01,0.00,25.0,24.2,00.0,34.2,26.6,09.3,0000.0,0005.76,0037.19,0001.62
2021-12-05 23:51:00,,0828.2,5.00,0.00,25.0,24.2,00.0,34.1,26.6,09.2,0000.0,0005.70,0036.19,0001.64
2021-12-05 23:52:00,,0828.2,5.00,0.00,24.9,24.1,00.0,34.1,26.5,09.2,0000.0,0005.79,0037.13,0001.65
2021-12-05 23:53:00,,0828.3,5.00,0.00,24.9,24.1,00.0,34.1,26.5,09.2,0000.0,0005.89,0037.19,0001.65
2021-12-05 23:54:00,,0828.4,5.00,0.00,24.9,24.1,00.0,34.1,26.5,09.1,0000.0,0005.96,0040.71,0001.64
2021-12-05 23:55:00,,0828.3,5.01,0.00,24.9,24.1,00.0,34.1,26.5,09.1,0000.0,0006.00,0043.34,0001.65
2021-12-05 23:56:00,,0828.4,4.99,0.00,24.9,24.1,00.0,34.1,26.5,09.0,0000.0,0006.04,0043.94,0001.69
2021-12-05 23:57:00,,0828.5,5.00,0.00,24.9,24.1,00.0,34.1,26.4,08.9,0000.0,0006.20,0045.34,0001.70
2021-12-05 23:58:00,,0828.9,5.00,0.00,24.8,24.0,00.0,34.0,26.4,08.8,0000.0,0006.20,0044.74,0001.70
2021-12-05 23:59:00,,0829.0,5.01,0.00,24.8,24.0,00.0,34.0,26.4,08.7,0000.0,0006.21,0044.17,0001.68
